Accueil
METAR-TAF:

METAR-TAF

Aéroports :

Hope, Colombie-Britannique, Canada

latitude: 49-22N, longitude: 121-29W, altitude: 39 m

Observation

Le bulletin a été fait il y a 52 minutes, à 19:00 UTC
Vent 5 kt de est/sud-est
Température 0°C
Humidité 80%
Pression 1018 hPa
Visibilité: 14.5 km
Quelques nuages à une hauteur de 2200 ft

METAR: CYHE 241900Z AUTO 11005KT 9SM FEW022 00/M03 A3006 RMK SLP182

Heure: 11:52 (19:52 UTC)


TAF: absent

Observations et prévisions météorologiques de plus de 4000 aéroports (messages METAR et TAF).

Les stations disponibles sont représentées par des disques jaunes et rouges sur la carte.

Passer la souris dessus pour voir le nom de la station.

Cliquer dessus pour voir les observations et prévisions météorologiques.

Pour changer de carte: cliquez sur les boutons verts avec une croix noire pour zoomer, sur le bouton vert avec un tiret pour effectuer un zoom arrière, ou sur les flèches vertes pour les cartes adjacentes.


METAR-TAF: